Portada
METAR-TAF:

METAR-TAF

Aeroports :

São Gabriel da Cachoeira, Amazones, Brasil

latitud: 00-08S, longitud: 067-05W, altitud: 90 m

Observació

L'informe es va fer fa 7 hores i 40 minuts, a les 19:00 UTC
Vent 6 kt del Sud/Sud-Oest
Temperatura 28°C
Humitat 84%
Pressió 1007 hPa
Visibilitat 10 km o més
Núvols disperses a una alçada de 2600 ft
Escasses núvols a una alçada de 3000 ft, Cumulus congestus.
xàfecs en les proximitats

METAR: SBUA 021900Z 21006KT 9999 VCSH SCT026 FEW030TCU 28/25 Q1007

Hora: 22:40 (02:40 UTC)


TAF: manca

Observacions i pronòstics meteorològics de més de 4000 aeroports (METAR i TAF).

Les estacions disponibles són els punts grocs i vermells al mapa.

Posi el ratolí al punt desitjat per veure el nom de l'estació.

Feu clic per veure les observacions i els pronòstics meteorològics.

Per canviar el mapa: feu clic els botons verds amb una creu de color negre per apropar; al botó verd amb un guió per allunyar la imatge; o en les fletxes verdes per a mapes adjacents.


METAR-TAF: